Zurück zum Katalog

STARLINK-36339

AktivKommunikationVLEO
NORAD 67340·PAYLOAD·🇺🇸 United States

Gestartet Jan 9, 2026 von Cape Canaveral Space Force Station

Loading…

Nächste Überflüge (nächste 24 Stunden)

TLE

AktuellSource: CelesTrak SupGP

Epoche: Sep 15, 2026, 02:53 UTC

1 67340C 26003G   26258.12062500 -.00029762  00000+0 -10782-2 0  2585
2 67340  42.9994 237.2599 0001118 263.9559 142.3874 15.27587243    10

Verfolge STARLINK-36339 in Echtzeit mit AllMySat

Download on the App Store